Omak, WA

8:04 PM PDT on July 22, 2017 (GMT -0700)
Omak

Weather History for KOMK - November, 2014

Change the Weather History Date:

Saturday, November 1, 2014

  Actual Average Record
Temperature  
Mean Temperature 49 °F 42 °F  
Max Temperature 57 °F 52 °F 62 °F (1953)
Min Temperature 40 °F 32 °F 5 °F (1935)
Degree Days  
Heating Degree Days 16 23  
Month to date heating degree days 16 23  
Since 1 July heating degree days 476 683  
Cooling Degree Days 0 0  
Month to date cooling degree days 0 0  
Year to date cooling degree days 873 665  
Moisture  
Dew Point 39 °F    
Average Humidity 70    
Maximum Humidity 93    
Minimum Humidity 47    
Precipitation  
Precipitation T in 0.05 in 0.55 in (1950)
Month to date precipitation T 0.05  
Year to date precipitation 9.05 10.99  
Sea Level Pressure  
Sea Level Pressure 29.79 in    
Wind  
Wind Speed 12 mph (NNW)    
Max Wind Speed 22 mph    
Max Gust Speed 29 mph    
Visibility 10 miles    
Events Rain    
T = Trace of Precipitation, MM = Missing Value Source: NWS Daily Summary

Daily Weather History Graph

Daily Weather History Graph

Search for Another Location

Airport or City:

Trip Planner

Search our weather history database for the weather conditions in past years. The results will help you decide how hot, cold, wet, or windy it might be!

Date:

Astronomy

Nov. 01, 2014 Rise Set
Actual Time 7:44 AM PDT 5:38 PM PDT
Civil Twilight 7:11 AM PDT 6:11 PM PDT
Nautical Twilight 6:34 AM PDT 6:48 PM PDT
Astronomical Twilight 5:57 AM PDT 7:24 PM PDT
Moon 3:01 PM PDT (11/1) 1:16 AM PDT (11/1)
Length of Visible Light 10h 59m
Length of Day
9h 54m
Waxing Gibbous, 69% of the Moon is Illuminated
Nov 1
Waxing Gibbous
Nov 6
Full
Nov 14
Last Quarter
Nov 22
New
Nov 29
First Quarter

Hourly Weather History & Observations

Time (PDT) Temp. Windchill Dew Point Humidity Pressure Visibility Wind Dir Wind Speed Gust Speed Precip Events Conditions
12:53 AM 48.9 °F - 46.0 °F 90% 29.80 in 10.0 mi SSW 3.5 mph - N/A   Overcast
1:31 AM 48.9 °F - 46.0 °F 90% 29.79 in 10.0 mi WNW 6.9 mph - 0.00 in Rain Light Rain
1:48 AM 48.2 °F - 44.6 °F 87% 29.78 in 10.0 mi NW 6.9 mph - 0.00 in   Overcast
1:53 AM 48.0 °F - 45.0 °F 89% 29.80 in 10.0 mi NW 6.9 mph - 0.00 in   Overcast
2:37 AM 46.9 °F - 45.0 °F 93% 29.78 in 10.0 mi NNW 5.8 mph - N/A   Overcast
2:53 AM 46.9 °F - 45.0 °F 93% 29.79 in 10.0 mi NNW 6.9 mph - N/A   Overcast
3:53 AM 48.0 °F - 45.0 °F 89% 29.78 in 10.0 mi NW 8.1 mph - N/A   Overcast
4:53 AM 46.9 °F - 44.1 °F 90% 29.79 in 10.0 mi NW 8.1 mph - N/A   Overcast
5:53 AM 46.9 °F - 43.0 °F 86% 29.78 in 10.0 mi NNW 9.2 mph - N/A   Overcast
6:53 AM 46.0 °F 41.4 °F 42.1 °F 86% 29.78 in 10.0 mi NNW 9.2 mph - N/A   Partly Cloudy
7:53 AM 45.0 °F 40.6 °F 39.9 °F 82% 29.78 in 10.0 mi NNW 8.1 mph - N/A   Clear
8:53 AM 46.0 °F 41.0 °F 39.0 °F 76% 29.79 in 10.0 mi NNW 10.4 mph - N/A   Clear
9:53 AM 48.0 °F - 39.0 °F 71% 29.78 in 10.0 mi NNW 13.8 mph 19.6 mph N/A   Clear
10:53 AM 50.0 °F - 39.0 °F 66% 29.77 in 10.0 mi NNW 12.7 mph - N/A   Clear
11:53 AM 51.1 °F - 39.0 °F 63% 29.78 in 10.0 mi NNW 11.5 mph - N/A   Clear
12:53 PM 53.1 °F - 39.0 °F 59% 29.75 in 10.0 mi NNW 11.5 mph - N/A   Clear
1:53 PM 55.9 °F - 39.0 °F 53% 29.74 in 10.0 mi North 15.0 mph 24.2 mph N/A   Clear
2:53 PM 55.0 °F - 37.0 °F 51% 29.73 in 10.0 mi North 16.1 mph 27.6 mph N/A   Clear
3:53 PM 55.0 °F - 36.0 °F 49% 29.74 in 10.0 mi North 17.3 mph 27.6 mph N/A   Clear
4:53 PM 53.1 °F - 36.0 °F 52% 29.76 in 10.0 mi North 15.0 mph - N/A   Clear
5:53 PM 50.0 °F - 35.1 °F 57% 29.78 in 10.0 mi North 16.1 mph - N/A   Clear
6:53 PM 48.0 °F - 35.1 °F 61% 29.80 in 10.0 mi North 13.8 mph - N/A   Clear
7:53 PM 46.9 °F - 35.1 °F 63% 29.82 in 10.0 mi North 13.8 mph - N/A   Clear
8:53 PM 46.9 °F - 34.0 °F 61% 29.83 in 10.0 mi North 11.5 mph - N/A   Clear
9:53 PM 45.0 °F 39.3 °F 33.1 °F 63% 29.84 in 10.0 mi North 11.5 mph - N/A   Clear
10:53 PM 45.0 °F 38.9 °F 32.0 °F 60% 29.84 in 10.0 mi North 12.7 mph - N/A   Clear
11:53 PM 44.1 °F 39.0 °F 32.0 °F 63% 29.87 in 10.0 mi NNW 9.2 mph - N/A   Clear